Wind_Speed
14 15 15 15 16 16 15 15 15 16 16 16 16 16 16 15 15 14 14 13 12 13 14 14 15 15 15 16 16 17 18 18 19 20 20 20 20 21 22 23 23 23 24
14 14 15 15 16 16 16 16 16 16 16 16 16 16 16 16 16 15 15 14 14 14 15 15 15 15 15 16 17 18 18 19 20 20 21 21 21 22 22 23 24 24 25
14 14 15 15 16 16 16 16 16 16 16 16 16 17 17 17 16 15 15 15 15 15 15 15 15 15 16 16 17 18 19 20 21 21 21 22 23 23 24 25 25 25 26
14 15 15 16 17 17 17 17 18 17 17 17 16 16 17 17 16 16 16 16 16 16 16 16 16 17 17 17 18 18 19 20 21 22 22 22 24 25 26 26 26 26 26
14 14 15 16 16 17 17 18 19 19 18 17 16 16 16 16 16 17 17 17 17 17 17 18 18 18 18 18 19 19 19 19 20 21 21 22 23 24 26 27 27 27 27
15 14 15 15 15 17 17 17 18 19 19 18 17 16 16 16 16 17 17 17 17 17 18 18 19 20 19 18 19 20 19 19 20 21 22 22 23 23 24 26 27 27 28
14 14 14 15 15 16 16 16 16 17 17 17 17 17 16 16 16 16 16 17 18 18 18 18 19 20 20 20 20 20 20 20 21 22 23 23 24 24 25 26 27 27 28
14 14 14 15 15 15 16 15 15 16 16 17 17 17 16 17 17 17 18 18 19 19 19 19 19 20 20 21 21 21 22 22 22 23 24 25 25 25 26 26 27 27 28
14 14 14 14 14 14 14 14 14 15 16 17 17 18 18 18 18 18 18 18 19 20 20 20 21 21 21 21 22 23 23 23 24 24 25 25 26 26 26 26 27 28 29
15 15 14 14 14 14 14 14 14 15 16 16 17 18 18 19 19 19 19 19 20 21 22 22 22 22 22 23 23 23 24 24 25 25 26 26 26 27 27 28 29 30 30
15 15 14 14 14 14 14 14 14 15 15 16 17 18 19 19 20 20 19 20 20 21 22 23 23 23 24 24 24 25 25 25 26 26 27 27 27 27 28 28 29 29 30
16 15 14 13 13 13 13 14 14 15 15 16 16 17 18 19 20 20 20 20 20 21 22 23 23 24 24 25 25 26 26 26 26 27 27 27 27 27 28 28 29 30 30
15 14 13 13 13 13 13 13 13 14 15 16 16 16 17 18 18 18 19 18 19 20 21 22 23 24 24 24 25 25 26 26 27 28 28 28 29 29 29 29 29 30 30
13 13 13 13 13 13 12 12 13 13 14 15 15 16 16 17 17 17 18 19 19 20 21 21 22 22 23 24 26 27 27 28 28 29 29 30 30 30 30 30 30 31 31
12 12 12 12 12 13 13 13 13 14 14 14 15 15 16 16 17 17 17 18 19 20 21 22 22 23 23 24 25 26 27 28 28 29 29 30 31 31 31 30 31 31 32
11 11 10 10 11 11 12 13 13 14 14 13 13 14 15 16 17 17 18 18 19 20 21 22 22 23 23 25 26 26 27 27 28 29 29 29 30 31 31 31 31 31 32
10 9 10 10 10 10 10 11 12 12 12 12 12 13 14 15 16 17 18 19 19 19 19 20 21 22 23 23 25 25 26 27 28 29 29 30 30 30 31 32 32 32 32
8 9 9 9 9 9 9 10 11 11 12 12 13 13 13 15 16 17 17 18 18 18 19 20 20 21 22 23 24 25 25 26 27 28 28 28 29 30 31 32 32 32 32
9 9 9 9 9 9 10 10 10 11 11 12 12 13 14 15 15 16 17 17 18 19 19 20 20 21 22 23 24 24 24 25 26 27 26 27 27 28 29 29 30 31 32
8 9 9 9 10 10 10 10 11 12 12 12 13 13 14 15 15 16 16 17 17 18 19 20 21 22 22 23 24 24 24 25 25 26 26 27 28 28 28 28 29 30 31
9 9 9 9 9 10 10 11 12 12 12 13 13 14 15 15 15 16 16 16 17 18 20 20 21 21 22 23 23 23 24 24 25 26 26 27 27 27 27 28 28 28 29
8 9 9 9 10 11 12 12 13 13 13 13 14 15 15 15 15 15 16 18 19 20 21 21 21 22 23 23 23 23 23 24 24 25 26 26 26 26 26 27 27 27 28
9 9 10 10 11 12 12 13 14 13 14 14 15 15 15 15 16 16 17 18 19 20 21 21 21 22 23 23 23 23 23 24 24 24 25 25 25 26 26 26 25 26 27
9 9 10 11 11 12 13 13 13 13 14 14 15 16 16 16 16 17 18 18 19 19 19 19 20 21 22 22 22 23 23 23 24 23 23 24 25 26 26 25 25 25 25
9 9 10 11 12 12 12 12 12 12 13 14 15 15 15 15 16 17 18 18 18 19 18 18 20 20 21 21 21 22 22 22 23 23 24 24 24 24 25 24 24 24 24
10 10 12 12 12 12 11 12 12 13 13 14 14 14 15 15 15 17 18 18 18 18 18 19 20 20 21 21 21 21 21 22 23 22 22 24 24 24 24 24 24 24 25
Wind_Direction
275 274 266 265 266 268 269 270 271 269 265 263 258 255 257 262 265 263 261 262 264 262 262 263 259 255 255 254 253 251 251 251 250 251 251 252 253 253 252 252 253 253 251
273 268 265 265 265 267 268 268 268 265 262 262 258 255 259 259 260 262 263 263 265 264 262 261 258 256 258 257 256 255 254 255 254 254 253 253 253 254 253 253 254 254 253
272 269 266 267 267 265 267 267 266 263 261 259 257 256 258 257 259 264 265 264 265 265 261 261 261 261 262 260 259 258 258 258 258 257 256 256 255 255 255 254 254 254 254
271 269 268 270 269 266 265 265 263 262 260 259 262 262 258 257 259 263 267 268 267 268 265 265 266 264 264 263 262 260 262 262 261 258 259 259 257 257 256 255 255 255 254
272 269 271 271 269 266 267 268 264 261 259 258 259 261 259 256 258 261 265 265 266 267 268 268 268 268 267 266 266 265 267 266 264 263 264 263 262 260 257 256 255 255 254
278 272 271 273 271 270 269 268 266 262 257 255 256 259 261 259 260 263 263 263 265 267 269 270 270 268 268 268 270 269 268 269 267 267 267 267 267 265 262 261 258 257 255
282 278 272 273 275 273 271 270 267 265 260 257 257 258 258 258 260 263 264 265 267 270 272 275 275 272 268 268 270 271 268 268 270 270 269 268 268 266 265 264 261 258 256
284 281 276 275 275 274 270 270 269 265 262 260 259 258 257 260 262 264 266 268 269 271 274 275 275 275 272 272 273 272 270 270 271 272 270 269 269 267 266 265 262 259 257
284 284 280 277 275 275 274 273 271 267 265 263 261 260 260 261 261 266 269 270 271 273 276 275 275 274 274 275 275 275 273 271 271 272 272 271 271 269 267 265 263 260 259
280 279 279 275 273 272 272 272 273 271 266 264 263 262 261 263 264 267 269 272 274 274 275 276 276 275 275 275 275 274 274 273 272 272 272 271 270 269 268 266 263 262 261
283 281 280 278 275 272 271 272 274 273 268 265 265 263 263 265 265 269 272 274 275 275 277 275 275 275 276 275 276 277 277 276 273 273 272 272 272 272 271 267 265 262 261
283 280 281 280 279 277 277 275 276 275 271 268 269 266 264 264 265 269 272 273 276 278 278 276 275 274 274 274 276 278 279 278 276 275 273 272 273 273 273 270 265 263 262
283 280 282 280 279 276 277 279 279 276 274 272 271 269 267 265 267 272 275 277 279 281 280 276 275 274 274 276 278 279 280 279 278 277 275 273 272 273 273 271 268 265 263
285 282 283 279 277 276 278 280 280 280 277 274 274 274 273 270 268 272 276 278 280 282 280 278 278 277 277 278 279 280 281 281 281 278 276 274 273 273 272 271 269 267 265
286 285 280 279 281 277 279 282 281 282 277 275 276 274 272 271 271 274 278 279 280 283 282 280 280 280 279 279 280 281 282 283 283 281 278 275 274 273 272 271 269 268 267
293 292 287 280 283 282 281 281 282 282 277 276 278 275 273 274 275 274 278 282 283 284 284 282 283 284 284 283 284 285 286 286 285 283 280 277 275 274 273 271 271 270 268
292 292 289 283 281 281 282 284 285 282 279 278 277 276 277 279 279 278 281 284 285 286 288 286 286 286 286 287 288 288 288 287 286 285 283 280 276 274 273 272 272 272 270
287 291 289 282 282 282 284 286 286 283 282 281 280 281 283 284 284 281 283 285 286 288 291 290 289 290 289 291 292 290 289 288 287 287 285 281 279 277 276 274 272 272 271
287 291 286 282 285 285 284 286 284 286 286 284 285 286 285 286 286 286 287 286 288 289 291 292 291 292 293 293 295 294 293 292 291 289 286 282 283 282 279 276 275 274 272
295 294 292 287 287 288 291 290 291 291 289 286 286 288 287 287 288 290 288 287 289 290 292 293 293 293 295 296 297 297 296 295 294 292 288 286 286 285 283 280 278 276 273
301 299 295 291 290 292 295 293 294 294 293 290 289 291 293 292 291 293 292 291 291 293 295 294 295 295 296 296 296 297 298 298 296 294 292 290 289 287 285 283 280 277 275
306 304 304 298 294 294 294 293 293 295 294 291 291 293 294 295 295 295 296 295 294 295 296 296 297 298 297 297 298 298 300 299 297 296 295 294 291 288 288 286 283 280 278
307 310 311 306 300 296 293 293 294 294 294 294 292 293 294 296 296 297 299 299 299 299 298 298 298 299 299 299 300 301 301 301 300 297 296 296 294 292 290 289 286 284 281
313 314 313 310 308 302 297 296 297 296 296 296 294 293 292 294 297 298 301 303 302 304 304 304 303 302 302 303 304 303 303 302 301 300 298 297 296 293 290 290 288 287 284
320 321 319 315 312 307 303 301 301 301 299 298 296 295 294 297 298 299 302 305 306 306 305 307 307 305 304 306 306 306 305 305 303 302 300 298 297 294 292 291 289 287 286
317 317 317 315 315 312 308 305 302 303 304 303 300 299 299 300 301 304 306 308 310 311 310 308 308 308 306 309 309 309 308 308 306 304 302 299 297 296 294 294 293 291 289
Height
5842 5842 5842 5842 5843 5843 5843 5844 5844 5844 5844 5844 5844 5845 5846 5846 5846 5846 5846 5846 5846 5846 5847 5847 5846 5847 5847 5847 5848 5849 5849 5850 5851 5852 5853 5853 5854 5855 5856 5857 5858 5858 5859
5839 5838 5838 5839 5839 5839 5840 5840 5840 5840 5840 5841 5841 5841 5842 5842 5842 5842 5842 5843 5843 5843 5843 5843 5843 5843 5843 5844 5844 5845 5845 5846 5846 5847 5847 5848 5849 5850 5851 5852 5853 5853 5854
5835 5835 5835 5835 5835 5835 5836 5836 5837 5837 5837 5837 5837 5837 5838 5838 5839 5839 5838 5839 5839 5839 5839 5839 5839 5839 5839 5840 5840 5840 5841 5841 5841 5842 5842 5843 5844 5845 5845 5846 5847 5848 5849
5831 5831 5831 5831 5831 5831 5832 5832 5833 5833 5833 5833 5833 5833 5834 5834 5834 5834 5835 5835 5835 5835 5835 5836 5836 5835 5835 5836 5835 5835 5836 5836 5836 5836 5837 5837 5838 5839 5840 5840 5841 5842 5843
5828 5828 5828 5827 5827 5827 5827 5828 5828 5828 5829 5829 5829 5829 5829 5830 5830 5831 5831 5831 5831 5831 5831 5831 5831 5831 5831 5831 5831 5831 5831 5831 5831 5831 5832 5832 5832 5833 5833 5834 5835 5836 5836
5825 5824 5824 5824 5823 5823 5823 5823 5824 5824 5824 5824 5825 5825 5825 5826 5826 5827 5827 5827 5827 5827 5827 5827 5827 5826 5826 5826 5826 5826 5826 5826 5826 5826 5826 5826 5826 5826 5827 5827 5828 5829 5829
5821 5821 5820 5820 5820 5819 5819 5819 5819 5819 5820 5820 5821 5821 5821 5821 5822 5822 5823 5823 5823 5823 5823 5823 5822 5822 5821 5821 5822 5821 5821 5821 5820 5820 5820 5820 5820 5820 5820 5821 5821 5822 5822
5818 5817 5817 5816 5816 5816 5815 5815 5815 5815 5815 5816 5816 5817 5817 5818 5818 5818 5818 5819 5819 5819 5818 5818 5817 5817 5816 5816 5816 5816 5815 5815 5815 5815 5814 5814 5814 5813 5813 5813 5814 5814 5815
5814 5813 5813 5812 5812 5812 5812 5811 5811 5811 5811 5811 5812 5812 5813 5814 5814 5814 5814 5814 5814 5813 5813 5812 5812 5812 5811 5811 5810 5810 5810 5809 5809 5808 5808 5807 5807 5806 5806 5806 5806 5807 5807
5811 5810 5809 5808 5808 5808 5808 5807 5807 5806 5806 5807 5807 5807 5808 5808 5809 5809 5809 5809 5808 5808 5807 5807 5806 5806 5805 5805 5804 5804 5803 5803 5802 5801 5801 5800 5800 5799 5799 5798 5798 5798 5799
5807 5806 5805 5804 5804 5804 5804 5804 5803 5802 5802 5802 5802 5803 5803 5803 5803 5803 5803 5803 5803 5802 5801 5801 5800 5800 5799 5799 5798 5797 5797 5796 5795 5795 5794 5793 5792 5791 5791 5790 5790 5790 5790
5803 5802 5801 5800 5800 5800 5800 5799 5799 5798 5798 5798 5798 5798 5798 5798 5798 5798 5797 5797 5797 5796 5795 5794 5794 5793 5793 5792 5792 5791 5790 5789 5788 5787 5786 5785 5784 5783 5782 5781 5781 5781 5780
5799 5798 5797 5796 5796 5796 5796 5795 5795 5794 5794 5793 5793 5793 5792 5793 5793 5792 5792 5791 5791 5790 5789 5788 5788 5787 5786 5785 5784 5784 5782 5781 5780 5779 5778 5777 5776 5775 5774 5773 5772 5771 5771
5795 5794 5793 5793 5792 5792 5791 5791 5790 5790 5789 5789 5788 5788 5787 5787 5787 5787 5787 5786 5785 5784 5783 5782 5781 5780 5779 5778 5777 5776 5774 5773 5772 5770 5769 5768 5767 5766 5765 5764 5763 5762 5761
5791 5790 5789 5788 5788 5788 5787 5787 5786 5786 5785 5785 5784 5783 5783 5782 5782 5782 5781 5781 5780 5779 5777 5776 5775 5773 5772 5771 5770 5768 5766 5765 5763 5761 5760 5759 5758 5756 5755 5754 5753 5753 5752
5788 5787 5785 5785 5784 5784 5783 5783 5782 5781 5781 5780 5779 5779 5778 5778 5777 5777 5776 5775 5774 5773 5771 5770 5768 5767 5765 5764 5762 5760 5758 5756 5754 5752 5751 5749 5748 5747 5746 5745 5744 5743 5742
5785 5783 5782 5782 5781 5780 5780 5779 5778 5777 5776 5776 5775 5774 5774 5773 5772 5772 5771 5770 5768 5767 5765 5764 5762 5760 5758 5756 5754 5752 5749 5747 5745 5743 5741 5740 5738 5737 5736 5735 5734 5733 5732
5782 5780 5779 5779 5778 5777 5777 5776 5775 5774 5773 5772 5771 5770 5770 5769 5768 5767 5766 5764 5763 5761 5760 5758 5756 5753 5751 5749 5746 5744 5742 5739 5737 5735 5733 5730 5728 5727 5726 5724 5724 5723 5722
5779 5778 5777 5776 5775 5774 5773 5772 5771 5770 5769 5768 5767 5766 5765 5764 5763 5762 5760 5759 5757 5755 5753 5751 5749 5747 5745 5743 5740 5737 5734 5732 5729 5726 5724 5722 5719 5718 5716 5715 5714 5713 5712
5776 5775 5774 5773 5772 5771 5770 5769 5768 5766 5765 5764 5763 5762 5761 5760 5758 5757 5755 5753 5752 5750 5748 5746 5743 5741 5739 5736 5733 5730 5727 5724 5722 5718 5716 5713 5711 5709 5707 5705 5704 5703 5702
5774 5773 5772 5770 5769 5769 5767 5766 5764 5763 5761 5760 5759 5758 5756 5755 5753 5752 5750 5748 5746 5744 5742 5740 5737 5735 5732 5729 5727 5724 5720 5717 5714 5711 5708 5705 5702 5700 5698 5696 5694 5693 5692
5772 5770 5769 5768 5767 5766 5764 5763 5761 5759 5757 5756 5755 5753 5752 5751 5749 5747 5745 5743 5741 5738 5736 5733 5731 5728 5726 5723 5720 5717 5714 5711 5708 5705 5701 5697 5694 5691 5689 5687 5685 5684 5682
5770 5768 5766 5765 5764 5762 5761 5759 5757 5755 5753 5752 5750 5749 5747 5746 5744 5742 5740 5738 5735 5732 5730 5727 5724 5722 5719 5716 5713 5710 5706 5703 5700 5697 5693 5690 5687 5684 5681 5679 5677 5675 5673
5767 5765 5764 5762 5760 5758 5757 5755 5753 5751 5749 5748 5746 5744 5743 5741 5739 5737 5735 5733 5730 5727 5724 5721 5719 5716 5713 5710 5706 5703 5699 5696 5693 5690 5686 5683 5680 5677 5674 5671 5669 5667 5665
5765 5763 5761 5759 5757 5755 5753 5751 5750 5747 5745 5743 5741 5740 5738 5737 5735 5733 5730 5728 5725 5722 5718 5716 5713 5710 5707 5703 5700 5696 5693 5689 5686 5683 5680 5676 5673 5670 5667 5664 5662 5659 5657
5762 5760 5758 5756 5754 5752 5750 5748 5746 5744 5742 5740 5738 5736 5734 5732 5731 5728 5726 5723 5720 5717 5713 5711 5708 5704 5701 5697 5694 5691 5687 5683 5680 5677 5673 5670 5667 5664 5661 5658 5655 5652 5649